{"data":{"norad_id":58713,"epoch":"2026-05-24T22:57:37.838016Z","epoch_age_seconds":81763,"freshness":"FRESH","line1":"1 58713U 24002J   26144.95668794  .00001042  00000+0  47288-4 0  9992","line2":"2 58713  53.1598 235.5802 0000830 103.1619 256.9474 15.30194593133693","mean_motion":15.30194593,"eccentricity":8.3e-5,"inclination_deg":53.1598,"raan_deg":235.5802,"arg_perigee_deg":103.1619,"mean_anomaly_deg":256.9474,"bstar":4.7288e-5,"rev_number":13369,"period_min":94.105678231213,"perigee_km":474.6623842325,"apogee_km":475.80004335599,"semimajor_km":6853.3682137942,"source":"CELESTRAK","updated_at":"2026-05-25T13:38:18.716314Z"}}